Location: Plzen
(49.7500°N, 13.3670°E)
Time: 04:22:09
(UTC+02:00)

ISS - Pass Details

Date: 20 May 2021
Orbit: 417 x 422 km, 51.6° (Epoch: 13 June)

Event Time Altitude Azimuth Distance (km) Brightness Sun altitude
Rises 01:19:12 0° 288° (WNW) 2,371 0.2 -20.2°
Reaches altitude 10° 01:21:19 10° 285° (WNW) 1,505 -0.8 -20.2°
Enters shadow 01:23:07 29° 276° (W) 814 -2.3 -20.1°
